Flag for U.S.A. Weather past 2 weeks in Portland, Oregon, U.S.A.

Now
59 °F

Passing clouds.


Feels Like: 59 °F
Forecast: 58 / 72 °F
Wind: No wind

Location: Portland International Airport

Current Time: Aug 31, 2014 at 1:39:36 AM

Latest Report: Aug 31, 2014 at 12:53 AM


Visibility: 10 mi

Pressure: 30.03 "Hg

Humidity: 78%

Dew point: 52 °F

Location of PortlandLocation

Historic Weather in Portland — Graph

°F

Portland temperature yesterday

Maximum temperature yesterday: 73 °F (at 4:53 PM)
Minimum temperature yesterday: 61 °F (at 11:53 PM)
Average temperature yesterday: 66 °F

Past Weeks' High & Low Weather Summary

 TemperatureHumidityPressure
High93 °F (Aug 26, 3:53 PM)90% (Aug 16, 4:53 AM)30.13 "Hg (Aug 16, 4:53 AM)
Low54 °F (Aug 21, 5:53 AM)21% (Aug 26, 5:53 PM)29.77 "Hg (Aug 18, 6:53 PM)
Average71 °F62%29.98 "Hg
* Reported Aug 15 11:53 PM — Aug 30 11:53 PM, Portland, Weather by CustomWeather, © 2014

Note: Actual official high and low records may vary slightly from our data, if they occured in-between our weather recording intervals... More about our weather records

Advertising

Portland weather history for previous 24 hours

 ConditionsComfort  
Time TempWeatherWind HumidityBarometerVisibility
11:53 PM
Aug 30
61 °FPassing clouds.No wind72%30.02 "Hg10 mi
10:53 PM62 °FPassing clouds.No wind73%30.01 "Hg10 mi
9:53 PM63 °FPassing clouds.6 mph68%30.01 "Hg10 mi
8:53 PM66 °FPassing clouds.8 mph59%30.00 "Hg10 mi
7:53 PM68 °FPassing clouds.13 mph53%29.97 "Hg10 mi
6:53 PM71 °FScattered clouds.16 mph47%29.96 "Hg10 mi
5:53 PM71 °FBroken clouds.14 mph53%29.94 "Hg10 mi
4:53 PM73 °FPartly sunny.12 mph50%29.93 "Hg10 mi
3:53 PM71 °FLight rain. Broken clouds.7 mph61%29.93 "Hg10 mi
2:53 PM69 °FLight rain. Partly sunny.8 mph68%29.94 "Hg10 mi
1:53 PM66 °FLight rain. Mostly cloudy.9 mph87%29.94 "Hg8 mi
12:53 PM68 °FMostly cloudy.10 mph73%29.93 "Hg10 mi
11:53 AM69 °FBroken clouds.17 mph70%29.93 "Hg10 mi
10:53 AM65 °FMostly cloudy.12 mph81%29.94 "Hg10 mi
9:53 AM63 °FMore clouds than sun.5 mph90%29.94 "Hg10 mi
8:53 AM65 °FOvercast.8 mph76%29.93 "Hg10 mi
7:53 AM63 °FOvercast.10 mph81%29.93 "Hg10 mi
6:53 AM64 °FOvercast.6 mph78%29.93 "Hg10 mi
5:53 AM64 °FMostly cloudy.6 mph81%29.93 "Hg10 mi
4:53 AM64 °FOvercast.5 mph81%29.94 "Hg10 mi
3:53 AM64 °FOvercast.5 mph78%29.94 "Hg10 mi
2:53 AM65 °FOvercast.3 mph76%29.94 "Hg10 mi
1:53 AM65 °FMostly cloudy.6 mph76%29.95 "Hg10 mi
Weather by CustomWeather, © 2014

See weather overviewHow to use our weather pages